This is the latest recevied weather packets stored in our database for station/object OE6ATD-13. If no packets are shown the sender has not sent any weather packets the latest 10 day(s).
| Time | Temp. | Humidity | Pressure | Rain* | Wind** | Luminosity | Snow |
|---|---|---|---|---|---|---|---|
| 1788259220 | 27.22° C | 50% | 1021.4 hPa | 0 mm | - | 847 W/m² | - |
| 1788258639 | 26.67° C | 54% | 1021.5 hPa | 0 mm | - | 833 W/m² | - |
| 1788258026 | 26.11° C | 54% | 1021.5 hPa | 0 mm | - | 825 W/m² | - |
| 1788257422 | 26.11° C | 56% | 1021.5 hPa | 0 mm | - | 823 W/m² | - |
| 1788256818 | 26.11° C | 55% | 1021.5 hPa | 0 mm | - | 822 W/m² | - |
| 1788256228 | 26.11° C | 58% | 1021.6 hPa | 0 mm | - | 821 W/m² | - |
| 1788255627 | 25.56° C | 58% | 1021.6 hPa | 0 mm | - | 809 W/m² | - |
| 1788255023 | 25° C | 58% | 1021.6 hPa | 0 mm | - | 759 W/m² | - |
| 1788254419 | 24.44° C | 60% | 1021.6 hPa | 0 mm | - | 758 W/m² | - |
| 1788253829 | 23.89° C | 63% | 1021.7 hPa | 0 mm | - | 349 W/m² | - |
| 1788253225 | 24.44° C | 62% | 1021.7 hPa | 0 mm | - | 492 W/m² | - |
| 1788252640 | 24.44° C | 61% | 1021.7 hPa | 0 mm | - | 706 W/m² | - |
| 1788252017 | 23.89° C | 62% | 1021.7 hPa | 0 mm | - | 687 W/m² | - |
| 1788251428 | 23.89° C | 63% | 1021.6 hPa | 0 mm | - | 367 W/m² | - |
| 1788250824 | 23.89° C | 69% | 1021.5 hPa | 0 mm | - | 663 W/m² | - |
| 1788250219 | 22.78° C | 70% | 1021.6 hPa | 0 mm | - | 315 W/m² | - |
| 1788249615 | 22.22° C | 71% | 1021.5 hPa | 0 mm | - | 550 W/m² | - |
| 1788249042 | 21.67° C | 81% | 1021.5 hPa | 0 mm | - | 529 W/m² | - |
| 1788248419 | 21.67° C | 99% | 1021.5 hPa | 0 mm | - | 456 W/m² | - |
| 1788247830 | 21.11° C | 99% | 1021.4 hPa | 0 mm | - | 462 W/m² | - |
| 1788247226 | 20° C | 99% | 1021.4 hPa | 0 mm | - | 422 W/m² | - |
| 1788246621 | 19.44° C | 99% | 1021.3 hPa | 0 mm | - | 155 W/m² | - |
| 1788246017 | 18.33° C | 99% | 1021.2 hPa | 0 mm | - | 203 W/m² | - |
| 1788245428 | 18.33° C | 99% | 1021.1 hPa | 0 mm | - | 208 W/m² | - |
| 1788244816 | 17.78° C | 99% | 1021.2 hPa | 0 mm | - | 103 W/m² | - |
* Rain latest hour (hover to see other rain measurements)
** Current wind speed in m/s (hover to see current wind gust speed)